Location: Honolulu
(21.3069°N, 157.8583°W)
Time: 08:08:16
(UTC-10:00)

ISS - Visible Passes

Search period start: 31 July 2021 00:00
Search period end: 10 August 2021 00:00
Orbit: 419 x 421 km, 51.6° (Epoch: 31 July)

Date Brightness Start Highest point End Pass type
(mag) Time Alt. Az. Time Alt. Az. Time Alt. Az.
01 Aug -0.5 21:22:59 10° N 21:23:00 10° N 21:23:00 10° N visible
02 Aug -1.1 20:37:04 10° NNE 20:37:34 11° NNE 20:37:34 11° NNE visible
03 Aug -0.8 21:24:20 10° NW 21:25:11 17° NW 21:25:11 17° NW visible
04 Aug -2.9 20:37:09 10° NNW 20:39:54 38° NNE 20:39:54 38° NNE visible
05 Aug -2.1 19:50:20 10° N 19:52:57 21° NE 19:54:42 14° E visible
05 Aug -0.5 21:27:17 10° W 21:27:41 12° W 21:27:41 12° W visible
06 Aug -2.6 20:39:12 10° WNW 20:42:18 36° SW 20:42:35 35° SW visible
07 Aug -3.8 19:51:38 10° NW 19:54:59 85° SW 19:57:34 16° SE visible
09 Aug -1.1 19:54:31 10° W 19:56:48 17° SW 19:59:03 10° SSW visible
